This is the latest recevied weather packets stored in our database for station/object W2GUX. If no packets are shown the sender has not sent any weather packets the latest 1 day(s).
| Time | Temp. | Humidity | Pressure | Rain* | Wind** | Luminosity | Snow |
|---|---|---|---|---|---|---|---|
| 1777997103 | 26.67° C | 36% | 1006.6 hPa | 0 mm | 1.34 m/s, 198° | - | - |
| 1777996804 | 26.11° C | 36% | 1006.7 hPa | 0 mm | 1.79 m/s, 196° | - | - |
| 1777996503 | 26.11° C | 35% | 1006.8 hPa | 0 mm | 1.79 m/s, 195° | - | - |
| 1777996203 | 26.11° C | 35% | 1006.9 hPa | 0 mm | 1.34 m/s, 225° | - | - |
| 1777995904 | 25.56° C | 36% | 1007 hPa | 0 mm | 1.34 m/s, 223° | - | - |
| 1777995603 | 25.56° C | 38% | 1007 hPa | 0 mm | 2.68 m/s, 187° | - | - |
| 1777995303 | 25.56° C | 40% | 1007.2 hPa | 0 mm | 2.68 m/s, 185° | - | - |
| 1777995003 | 25.56° C | 39% | 1007.2 hPa | 0 mm | 2.24 m/s, 186° | - | - |
| 1777994703 | 25° C | 39% | 1007.2 hPa | 0 mm | 2.24 m/s, 181° | - | - |
| 1777994404 | 25° C | 38% | 1007.2 hPa | 0 mm | 1.79 m/s, 191° | - | - |
| 1777994104 | 25.56° C | 37% | 1007.2 hPa | 0 mm | 1.79 m/s, 249° | - | - |
| 1777993803 | 25° C | 39% | 1007.2 hPa | 0 mm | 1.34 m/s, 270° | - | - |
| 1777993503 | 25° C | 39% | 1007.3 hPa | 0 mm | 1.34 m/s, 258° | - | - |
| 1777993204 | 24.44° C | 42% | 1007.3 hPa | 0 mm | 1.34 m/s, 237° | - | - |
| 1777992903 | 24.44° C | 41% | 1007.4 hPa | 0 mm | 1.79 m/s, 208° | - | - |
| 1777992603 | 24.44° C | 40% | 1007.6 hPa | 0 mm | 1.79 m/s, 228° | - | - |
| 1777992304 | 23.89° C | 41% | 1007.7 hPa | 0 mm | 1.79 m/s, 242° | - | - |
| 1777992003 | 23.89° C | 42% | 1007.8 hPa | 0 mm | 2.24 m/s, 247° | - | - |
| 1777991703 | 23.33° C | 43% | 1007.9 hPa | 0 mm | 2.24 m/s, 215° | - | - |
| 1777991404 | 23.33° C | 43% | 1007.9 hPa | 0 mm | 1.79 m/s, 186° | - | - |
| 1777991104 | 23.33° C | 44% | 1007.8 hPa | 0 mm | 1.34 m/s, 193° | - | - |
| 1777990803 | 22.78° C | 47% | 1007.9 hPa | 0 mm | 1.79 m/s, 182° | - | - |
| 1777990503 | 22.22° C | 47% | 1007.9 hPa | 0 mm | 1.79 m/s, 186° | - | - |
| 1777990204 | 22.78° C | 47% | 1007.7 hPa | 0 mm | 1.34 m/s, 191° | - | - |
| 1777989904 | 22.22° C | 46% | 1007.8 hPa | 0 mm | 1.34 m/s, 193° | - | - |
* Rain latest hour (hover to see other rain measurements)
** Current wind speed in m/s (hover to see current wind gust speed)